Regional Weather Roundup
Issued by NWS Wakefield, VA

Home | Current Version | Previous Version | Graphics & Text | Print | Product List | Glossary On
Versions: 1 2 3 4 5 6 7 8 9 10 11 12 13 14 15 16 17 18 19 20 21 22 23 24 25 26 27 28 29 30 31 32 33 34 35 36 37 38 39 40 41 42 43 44 45 46 47 48 49 50
000
ASUS41 KAKQ 191010
RWRAKQ

REGIONAL WEATHER ROUNDUP
NATIONAL WEATHER SERVICE WAKEFIELD VA
600 AM EDT FRI SEP 19 2014

Note: "fair" indicates few or no clouds below 12,000 feet with no
significant weather and/or obstructions to visibility. * = Denotes
station may not report precipitation (e.g., rain,snow,etc.),
thunder or fog.

VAZ042-051-052>054-056-191100-
NORTHERN VIRGINIA

CITY           SKY/WX    TMP DP  RH WIND       PRES   REMARKS
WASH NATIONAL  MOCLDY    62  52  69 NE10      30.19R
DULLES         MOCLDY    56  49  77 N7        30.19R
FORT BELVOIR   CLEAR     57  55  94 CALM      30.19R FOG
QUANTICO       MOCLDY    60  57  89 NW6       30.19R
FREDERICKSBRG* FOG       62  62 100 N3        30.16R VSB 3/4
STAFFORD*      CLOUDY    57  57 100 CALM      30.21R FOG
WARRENTON      CLOUDY    58  58 100 NE5       30.18R
CULPEPER*      MOCLDY    55  54  94 NE3       30.19R
MANASSAS*      MOCLDY    57  54  88 N6        30.19R
LEESBURG*      PTCLDY    55  52  88 NE8       30.21R
WINCHESTER     CLOUDY    54  48  82 CALM      30.21R
FRONT ROYAL*   CLOUDY    52  52 100 CALM      30.20R
LURAY*         CLOUDY    61  52  72 N9        30.19R
$$

VAZ048-049-060>072-079>083-191100-
CENTRAL AND SOUTH CENTRAL VIRGINIA...AND NORTH CENTRAL NORTH CAROLINA

CITY           SKY/WX    TMP DP  RH WIND       PRES   REMARKS
RICHMOND       CLOUDY    63  58  83 CALM      30.16R
CHESTERFIELD*  CLOUDY   N/A N/A N/A CALM      30.17R
PETERSBURG*    CLOUDY    63  58  86 N3        30.16R
HANOVER        CLOUDY    60  59  96 CALM      30.18R
TAPPAHANNOCK*  MOCLDY    57  55  94 CALM      30.17R FOG
CHARLOTTSVILLE CLOUDY    61  56  83 NE3       30.17R
ORANGE*        CLOUDY    59  54  82 CALM      30.19R
LOUISA*        CLOUDY    61  59  94 NW3       30.16R FOG
FARMVILLE*     CLOUDY    63  63 100 NE3       30.14R
CREWE*         CLOUDY    63  59  86 CALM      30.16R
FORT PICKETT*  CLOUDY    62  60  92 N6        30.15R
LUNENBURG*     CLOUDY    62  60  94 N3        30.14R
SOUTH HILL*    CLOUDY    63  63 100 CALM      30.19R
LAWRENCEVILLE* CLOUDY    61  60  95 CALM      30.15R
ROANOKE RAPIDS CLOUDY    59  59 100 CALM      30.13R
RALEIGH        MOCLDY    65  59  81 CALM      30.13R
$$

VAZ088>098-191100-
SOUTHEAST VIRGINIA

CITY           SKY/WX    TMP DP  RH WIND       PRES   REMARKS
NORFOLK        CLOUDY    67  60  78 CALM      30.14R
VIRGINIA BEACH MOCLDY    63  59  87 CALM      30.14R
NORFOLK NAVAL  CLOUDY    69  59  70 CALM      30.15R
WEST POINT*    CLOUDY    62  59  91 CALM      30.17R
NEWPORT NEWS   CLOUDY    68  60  75 CALM      30.14R
LANGLEY AFB    CLOUDY    66  63  90 CALM      30.14R
FORT EUSTIS    CLOUDY    67  67 100 VRB3      30.13R
WILLIAMSBURG*  CLOUDY    66  63  88 CALM      30.16R
HR EXEC AP*    PTSUNNY   57  54  88 CALM      30.16R
FRANKLIN*      CLOUDY    61  59  94 CALM      30.15R
WAKEFIELD      MOCLDY    60  58  92 CALM      30.15R
$$

VAZ020-022-025-037-045-191100-
WEST CENTRAL AND SOUTHWEST VIRGINIA

CITY           SKY/WX    TMP DP  RH WIND       PRES   REMARKS
STAUNTON*      CLOUDY    60  50  70 CALM      30.20R
HOT SPRINGS VA CLOUDY    52  36  54 E6        30.23S
LYNCHBURG      CLOUDY    63  61  93 NE6       30.17R
DANVILLE       CLOUDY    64  61  90 E3        30.13R
SOUTH BOSTON*  NOT AVBL
MARTINSVILLE   RAIN      65  65 100 CALM      30.16R
ROANOKE        CLOUDY    64  61  90 CALM      30.17R
BLACKSBURG     CLOUDY    63  63 100 CALM      30.19R FOG
DUBLIN*        CLOUDY    61  60  97 CALM      30.18R
MARION*        MOCLDY    57  55  95 CALM      30.19R FOG
HILLSVILLE*    CLOUDY    59  58  97 CALM      30.17R
RICHLANDS*     MOSUNNY   63  57  82 CALM      30.15R
WISE*          CLEAR     54  54 100 CALM      30.15S FOG
ABINGDON*      CLEAR     57  55  94 E7        30.13R
$$

MDZ021>025-VAZ099-100-191100-
SOUTHERN MARYLAND AND THE DELMARVA PENINSULA

CITY           SKY/WX    TMP DP  RH WIND       PRES   REMARKS
PATUXENT RIVER PTCLDY    59  57  93 W5        30.16R
BAY BRIDGE APT   N/A     59  52  77 NE8       30.18S
LEONARDTOWN    CLOUDY    55  54  94 CALM      30.18R VSB 1/4
DOVER          CLEAR     56  53  91 N9        30.16R
GEORGETOWN     CLEAR     57  53  86 VRB3      30.18R
EASTON         CLEAR     58  58 100 NE7       30.21R
CAMBRIDGE      CLEAR     55  54  94 NE6       30.16R
SALISBURY      CLEAR     59  54  83 CALM      30.17R
OCEAN CITY     MOCLDY    60  56  86 N5        30.16R
WALLOPS ISLAND PTCLDY    59  57  93 CALM      30.16R
ACCOMACK*      CLOUDY    55  54  94 CALM      30.15R
$$

NCZ012>017-030>032-191100-
EASTERN NORTH CAROLINA

CITY           SKY/WX    TMP DP  RH WIND       PRES   REMARKS
ELIZABETH CITY CLEAR     60  58  92 CALM      30.13R
AHOSKIE*       MOCLDY    58  56  94 CALM      30.14R
EDENTON*       CLOUDY    61  59  95 N5        30.13R
CURRITUCK*     CLOUDY    61  58  91 CALM      30.14R
KILL DEVIL HLS CLEAR     71  57  61 E5        30.11R
MANTEO         CLEAR     70  58  66 NE8       30.12R
CAPE HATTERAS  PTCLDY    68  63  84 NE6       30.09R
TARBORO*       CLOUDY    60  58  94 NE3       30.14R
GOLDSBORO      CLOUDY    63  62  98 CALM      30.09R
WASHINGTON     PTCLDY    58  56  93 CALM      30.12R
GREENVILLE     MOCLDY    59  59 100 CALM      30.13R
NEW BERN       PTCLDY    66  60  81 NE5       30.11R
WILMINGTON     PTCLDY    64  60  87 NE8       30.07R
$$

VAZ048-191100-
ELSEWHERE

CITY           SKY/WX    TMP DP  RH WIND       PRES   REMARKS
HARRISBURG PA  CLEAR     51  47  86 NW3       30.22R
BALTIMORE      PTCLDY    56  50  80 NE6       30.19R
ANNAPOLIS      PTCLDY    62  54  74 NE9       30.18R
ANDREWS AFB    CLEAR     56  55  99 NE7       30.18R
WILMINGTON DE  CLEAR     54  49  83 N10       30.21R
PHILADELPHIA   PTCLDY    59  49  69 NE12      30.21R
WILDWOOD NJ*   CLEAR     55  48  76 N9        30.18R
ATLANTIC CITY  CLEAR     53  51  93 N7        30.18R
HENDERSON NC   MOCLDY    61  58  88 CALM      30.13R
GREENSBORO     CLOUDY    66  63  90 E5        30.11R
ROCKY MOUNT    CLOUDY    62  58  86 NE3       30.12R
FAYETTEVILLE   CLOUDY    64  61  90 NE5       30.09R
CHARLOTTE      CLOUDY    67  64  90 NE6       30.09R
$$

VAZ100-191100-
MARINE

STATION/POSITION TIME  TEMP    WIND        PRES    WAVE   SWELL
                       AIR SEA DIR/SP/G            HT/PER HT/PER
                 (UTC) (F)     (DEG/KT/KT) (MB)    (FT/S) (FT/S)
44066 TX TWR #4  1000   68 72   30/ 12/ 16 1020.6R   3/11   2/11
CAPE MAY NJ      1000   60 75   30/  4/  9 1021.1R
LEWES DE         1000   66 72   30/ 13/ 15 1021.2R
15NM E FENWICK I 1000   70 72              1020.9R   2/10
OCEAN-CITY-INLET 1000   64 72  350/  5/  5 1020.8R
WACHAPREAGUE VA  1000   63 74  330/  1/  3 1020.9R
THOMAS POINT MD  1000   63 73   40/ 15/ 17 1022.8R
GOOSES REEF MD   1000   69      50/ 12/ 14 1021.4S
COVE POINT MD    1000   68      20/  9/ 11 1021.1R
SOLOMONS ISLAND  1000      76                N/A
BISHOPS HEAD MD  1000   67 72   30/  9/ 12 1020.7R
PINEY POINT MD   1000           40/  4/  4   N/A
POTOMAC MD       1000   70      20/  4/  6 1020.1R
CAMBRIDGE MD     1000   63 74   30/  9/ 12 1021.2R
LEWISETTA VA     1000   65 73  310/  5/  5 1020.8R
RAPPAHANNOCK LGT 1000           40/  3/  3 1021.2R
STINGRAY PT      1000   70     350/  4/  6   N/A
YORK RVR RNG VA  1000   71      10/  7/  7 1020.1R
YORKTOWN VA      1000   68 76   10/  6/  7 1020.2R
JAMESTOWN VA     1000   66      50/  6/  8   N/A
DOMINION TERM VA 1000   69      20/  4/  5 1020.5R
KIPTOPEKE VA     1000      78   40/  4/  5   N/A
CHES BAY BRIDGE  1000   72 75   60/  7/  8 1019.9R
CAPE HENRY VA    1000   72      60/  6/  7 1019.3R
CHESAPEAKE LGHT  0900   71      80/ 10/ 11 1020.3R
WILLOUBY STN VA  1000   70     360/  5/  5 1019.2R
S CRANEY ISL VA  1000           70/  3/  5 1020.1R
CAPE HENRY BUOY  1000      75                N/A     3/11   2/11
1ST LANDING BUOY 1000   72      70/  6/  8 1020.0R
CAPE CHARLES BUO 1000      74                N/A     3/11   2/11
OFFSHORE WE BUOY 1000      74                N/A     3/10   3/10
64NM E OF VA BCH 1000   72 77   70/ 12/ 16 1019.5R   3/10   3/10
DUCK PIER NC     1000   72 75   70/ 13/ 14 1019.3R
44100 DUCK FRF   1000      74                N/A     4/11   2/11
44056 DUCK FRF   1000                        N/A     3/12   2/12
OREGON INLET NC  1000   72 73   40/ 11/ 15 1019.4R
HATTERAS NC      1000   72 75   40/  9/ 13 1019.2R
DIAMOND SHLS NC  1000   74      30/ 17/ 23 1017.7R   5/ 6   2/ 9
CAPE LOOKOUT NC  0900   74      30/ 17/ 19 1017.9R
$$



USA.gov is the U.S. government's official web portal to all federal, state and local government web resources and services.